User: anonymous   Login
Location: Oshawa
(43.9000°N, 78.8670°W)
Time: 21:25:22
(UTC-05:00)
Language:

CZ-4C R/B - Orbit

View from above orbital plane
View from above orbital plane
View from above satellite
View from above satellite

Ground track
Ground track

The orbit data is extracted from the following two-line orbital elements,

1 32290U 07055B   16041.32675903  .00008609  00000-0  26414-3 0  9993
2 32290  97.5288 132.9127 0074486  85.8972 275.0778 15.31252958456305
Epoch (UTC): 10 February 2016 07:50:31
Eccentricity: 0.0074486
inclination: 97.5288°
perigee height: 421 km
apogee height: 523 km
right ascension of ascending node: 132.9127°
argument of perigee: 85.8972°
revolutions per day: 15.31252958
mean anomaly at epoch: 275.0778°
orbit number at epoch: 45630

The dashed part of the orbit path shows where the satellite is in the earth's shadow,  

DLR